TimeCDT,TemperatureF,Dew PointF,Humidity,Sea Level PressureIn,VisibilityMPH,Wind Direction,Wind SpeedMPH,Gust SpeedMPH,PrecipitationIn,Events,Conditions,WindDirDegrees,DateUTC
12:53 AM,61.0,57.0,87,30.09,10.0,Calm,Calm,-,N/A,,Clear,0,2013-04-10 05:53:00
1:53 AM,61.0,55.9,83,30.06,10.0,Calm,Calm,-,N/A,,Clear,0,2013-04-10 06:53:00
2:53 AM,60.1,55.9,86,30.04,10.0,Calm,Calm,-,N/A,,Clear,0,2013-04-10 07:53:00
3:53 AM,61.0,55.9,83,30.04,10.0,East,3.5,-,N/A,,Clear,100,2013-04-10 08:53:00
4:53 AM,59.0,55.9,90,30.04,10.0,Calm,Calm,-,N/A,,Clear,0,2013-04-10 09:53:00
5:53 AM,59.0,55.9,90,30.05,10.0,Calm,Calm,-,N/A,,Clear,0,2013-04-10 10:53:00
6:53 AM,57.9,55.9,93,30.07,10.0,Calm,Calm,-,N/A,,Clear,0,2013-04-10 11:53:00
7:53 AM,64.9,60.1,84,30.06,10.0,SE,5.8,-,N/A,,Clear,140,2013-04-10 12:53:00
8:53 AM,72.0,62.1,71,30.07,10.0,SSE,12.7,-,N/A,,Clear,160,2013-04-10 13:53:00
9:53 AM,77.0,61.0,58,30.07,10.0,South,9.2,17.3,N/A,,Clear,170,2013-04-10 14:53:00
10:53 AM,79.0,61.0,54,30.09,10.0,Variable,5.8,-,N/A,,Clear,0,2013-04-10 15:53:00
12:53 PM,81.0,60.1,49,30.05,10.0,South,6.9,-,N/A,,Mostly Cloudy,180,2013-04-10 17:53:00
1:53 PM,86.0,59.0,40,30.04,10.0,South,11.5,-,N/A,,Mostly Cloudy,180,2013-04-10 18:53:00
2:53 PM,82.0,57.9,44,30.01,10.0,SE,5.8,-,N/A,,Mostly Cloudy,140,2013-04-10 19:53:00
3:53 PM,84.9,60.1,43,29.99,10.0,SE,8.1,-,N/A,,Mostly Cloudy,140,2013-04-10 20:53:00
4:53 PM,84.0,57.9,41,29.98,10.0,South,8.1,-,N/A,,Partly Cloudy,190,2013-04-10 21:53:00
5:53 PM,82.0,57.0,42,29.97,10.0,SSW,10.4,-,N/A,,Partly Cloudy,200,2013-04-10 22:53:00
6:53 PM,79.0,57.9,48,29.96,10.0,South,6.9,-,N/A,,Clear,170,2013-04-10 23:53:00
7:53 PM,75.0,59.0,57,29.97,10.0,SSE,4.6,-,N/A,,Clear,160,2013-04-11 00:53:00
8:53 PM,73.0,59.0,61,29.96,10.0,SSE,4.6,-,N/A,,Clear,150,2013-04-11 01:53:00
9:53 PM,70.0,59.0,68,29.95,10.0,SSW,3.5,-,N/A,,Clear,200,2013-04-11 02:53:00
10:53 PM,68.0,59.0,73,29.95,10.0,SSE,3.5,-,N/A,,Clear,160,2013-04-11 03:53:00
11:53 PM,64.9,59.0,81,29.93,10.0,SSE,3.5,-,N/A,,Clear,150,2013-04-11 04:53:00